FW5763 Weather Reports


Display with metric or nautical units.
time (UTC)temp
F
wind
direction
speed
MPH
gust
MPH
rain 1hr
in
rain 24hr
in
rain mn
in
humidity
%
barometer
mb
20260503040118 56 58 2.0 4.0 0.00 0.00 0.00 81 1012.5
20260503035118 56 88 2.0 3.0 0.00 0.00 0.00 82 1012.3
20260503034118 56 70 3.0 4.0 0.00 0.00 0.00 82 1012.1
20260503033118 56 59 2.0 3.0 0.00 0.00 0.00 82 1012.1
20260503032118 56 67 2.0 4.0 0.00 0.00 0.00 82 1012.1
20260503031118 56 85 2.0 4.0 0.00 0.00 0.00 81 1011.9
20260503030118 56 74 1.0 4.0 0.00 0.00 0.00 81 1012.0
20260503025118 57 92 3.0 5.0 0.00 0.00 0.00 80 1011.9
20260503024118 57 85 2.0 3.0 0.00 0.00 0.00 79 1011.9
20260503023118 58 95 3.0 4.0 0.00 0.00 0.00 78 1011.8
20260503022138 58 47 2.0 7.0 0.00 0.00 0.00 77 1011.7
20260503021117 58 85 2.0 6.0 0.00 0.00 0.00 76 1011.6
20260503020117 59 105 3.0 6.0 0.00 0.00 0.00 76 1011.7
20260503015117 59 141 3.0 7.0 0.00 0.00 0.00 75 1011.7
20260503014135 59 90 4.0 6.0 0.00 0.00 0.00 75 1011.8
20260503013118 60 101 3.0 4.0 0.00 0.00 0.00 74 1011.8
20260503012118 60 106 2.0 6.0 0.00 0.00 0.00 73 1011.9
20260503011118 61 94 1.0 6.0 0.00 0.00 0.00 72 1011.8
20260503010115 61 125 3.0 6.0 0.00 0.00 0.00 71 1011.9
20260503005118 62 206 2.0 4.0 0.00 0.00 0.00 71 1011.9
20260503004118 62 115 3.0 4.0 0.00 0.00 0.00 70 1011.8
20260503003138 62 159 3.0 6.0 0.00 0.00 0.00 70 1012.0
20260503002118 62 141 3.0 9.0 0.00 0.00 0.00 69 1011.9
20260503001117 62 175 1.0 2.0 0.00 0.00 0.00 71 1012.0
20260503000117 63 162 3.0 9.0 0.00 0.00 0.00 69 1011.9
20260502235118 63 227 3.0 7.0 0.00 0.00 0.00 69 1012.0
20260502234118 63 137 3.0 8.0 0.00 0.00 0.00 69 1012.2
20260502233117 63 219 5.0 8.0 0.00 0.00 0.00 70 1012.1
20260502232118 63 202 4.0 6.0 0.00 0.00 0.00 71 1012.3
20260502231117 63 226 5.0 7.0 0.00 0.00 0.00 71 1012.6
20260502230138 63 157 2.0 8.0 0.00 0.00 0.00 71 1012.7
20260502225117 62 150 3.0 6.0 0.00 0.00 0.00 72 1012.9
20260502224115 62 212 6.0 9.0 0.00 0.00 0.00 72 1013.1
20260502223117 62 188 6.0 9.0 0.00 0.00 0.00 74 1013.2
20260502222118 61 106 4.0 9.0 0.00 0.00 0.00 73 1013.3
20260502221117 61 151 1.0 7.0 0.00 0.00 0.00 76 1013.5
20260502220115 60 234 1.0 2.0 0.00 0.00 0.00 78 1013.7
20260502215117 60 184 4.0 5.0 0.00 0.00 0.00 78 1014.1
20260502214117 60 127 4.0 7.0 0.00 0.00 0.00 80 1014.2
20260502213118 59 173 4.0 7.0 0.00 0.00 0.00 80 1014.3
20260502212136 59 175 4.0 9.0 0.00 0.00 0.00 81 1014.3
20260502211118 58 199 2.0 6.0 0.00 0.00 0.00 81 1014.3
20260502210137 58 202 3.0 5.0 0.00 0.00 0.00 82 1014.3
20260502205137 58 248 1.0 3.0 0.00 0.00 0.00 82 1014.5
20260502204117 58 200 2.0 3.0 0.00 0.00 0.00 82 1014.7
20260502203117 58 120 3.0 5.0 0.00 0.00 0.00 83 1015.0
20260502202115 57 156 4.0 5.0 0.00 0.00 0.00 83 1015.1
20260502201115 57 154 3.0 5.0 0.00 0.00 0.00 82 1015.2
20260502200115 57 164 1.0 2.0 0.00 0.00 0.00 84 1015.4
20260502195115 57 149 2.0 4.0 0.00 0.00 0.00 84 1015.5
20260502194115 57 205 1.0 4.0 0.00 0.00 0.00 85 1015.6
20260502193115 57 143 3.0 5.0 0.00 0.00 0.00 86 1015.7
20260502192115 56 165 3.0 5.0 0.00 0.00 0.00 86 1015.6
20260502191115 56 179 2.0 4.0 0.00 0.00 0.00 85 1015.6
20260502190114 56 137 2.0 4.0 0.00 0.00 0.00 85 1015.6
20260502185114 57 215 2.0 4.0 0.00 0.00 0.00 84 1015.6
20260502184115 57 260 2.0 3.0 0.00 0.00 0.00 83 1015.5
20260502183114 57 142 3.0 4.0 0.00 0.00 0.00 84 1015.6
20260502182115 56 238 1.0 2.0 0.00 0.00 0.00 85 1015.6
20260502181115 56 144 2.0 4.0 0.00 0.00 0.00 85 1015.7
20260502180114 56 95 3.0 6.0 0.00 0.00 0.00 86 1015.6
20260502170117 54 231 1.0 1.0 0.00 0.00 0.00 88 1015.4
20260502164117 54 143 1.0 2.0 0.00 0.00 0.00 90 1015.3
20260502163117 54 109 0.0 1.0 0.00 0.00 0.00 90 1015.3
20260502162137 53 82 2.0 3.0 0.00 0.00 0.00 91 1015.2
20260502161117 53 140 0.0 2.0 0.00 0.00 0.00 91 1015.3
20260502160116 53 92 0.0 1.0 0.00 0.00 0.00 91 1015.2
20260502152117 53 182 0.0 1.0 0.00 0.00 0.00 92 1014.9
20260502151117 53 121 1.0 2.0 0.00 0.00 0.00 92 1014.7
20260502150115 53 155 1.0 2.0 0.00 0.00 0.00 92 1014.6
20260502130117 53 132 0.0 1.0 0.00 0.00 0.00 92 1014.0
20260502123117 53 318 0.0 1.0 0.00 0.00 0.00 92 1013.9
20260502122157 53 0.0 1.0 0.00 0.00 0.00 92 1013.8
20260502121117 53 0.0 1.0 0.00 0.00 0.00 92 1013.6
20260502120137 53 271 1.0 3.0 0.00 0.00 0.00 92 1013.6
20260502115135 53 194 1.0 1.0 0.00 0.00 0.00 92 1013.6
20260502114116 53 0.0 0.0 0.00 0.00 0.00 92 1013.5
20260502113117 53 64 0.0 2.0 0.00 0.00 0.00 92 1013.4
20260502112137 53 111 1.0 1.0 0.00 0.00 0.00 92 1013.5
20260502111115 53 88 1.0 2.0 0.00 0.00 0.00 92 1013.4
20260502110136 53 106 1.0 2.0 0.00 0.00 0.00 92 1013.4
20260502105136 53 103 0.0 2.0 0.00 0.00 0.00 92 1013.6
20260502104117 53 83 0.0 2.0 0.00 0.00 0.00 92 1013.6
20260502103116 53 105 0.0 1.0 0.00 0.00 0.00 91 1013.7
20260502102116 53 0.0 1.0 0.00 0.00 0.00 91 1013.6
20260502101136 53 105 0.0 1.0 0.00 0.00 0.00 91 1013.6
20260502100116 53 105 0.0 1.0 0.00 0.00 0.00 91 1013.8
20260502091137 53 108 1.0 2.0 0.00 0.00 0.00 91 1014.1
20260502090136 53 0.0 1.0 0.00 0.00 0.00 91 1014.3
20260502071116 52 0.0 0.0 0.00 0.00 0.00 90 1014.7
20260502070117 52 0.0 0.0 0.00 0.00 0.00 90 1014.7
20260502065117 52 0.0 0.0 0.00 0.00 0.00 89 1014.7
20260502064117 52 0.0 0.0 0.00 0.00 0.00 89 1014.8
20260502063116 52 0.0 0.0 0.00 0.00 0.00 89 1014.7
20260502062116 53 0.0 0.0 0.00 0.00 0.00 89 1014.7
20260502061117 53 0.0 0.0 0.00 0.00 0.00 89 1014.7
20260502060116 53 0.0 0.0 0.00 0.00 0.00 89 1014.7
20260502055116 54 0.0 0.0 0.00 0.00 0.00 88 1014.8
20260502054116 54 0.0 0.0 0.00 0.00 0.00 88 1014.8
20260502053136 54 0.0 0.0 0.00 0.00 0.00 88 1014.8
20260502052136 54 0.0 0.0 0.00 0.00 0.00 87 1014.8
20260502051116 55 0.0 0.0 0.00 0.00 0.00 87 1014.7
20260502050116 55 0.0 0.0 0.00 0.00 0.00 87 1014.8
20260502045116 55 0.0 0.0 0.00 0.00 0.00 86 1014.7
20260502044116 56 0.0 0.0 0.00 0.00 0.00 86 1014.5
20260502043116 56 0.0 0.0 0.00 0.00 0.00 85 1014.4
20260502042156 56 0.0 0.0 0.00 0.00 0.00 84 1014.4
20260502041136 57 0.0 0.0 0.00 0.00 0.00 84 1014.2